Content
SEND FEEDBACK

Daily
Averages
Monthly
Summary
United States of America

ASATDAS, GUAM


Home > North America > United States > Guam
Elevation: 612 feet     Latitude: 13 35N     Longitude: 144 56E

WEATHER
 
SELECT A DAY
Number of Records: 214,928;   Date Range: 1/1/95 - 11/26/14
 
SHARE

PRINT THIS DATA

[ ← Previous Day ]
WEATHER ALMANAC - MARCH 22, 2014
[ Next Day → ]
[ °C ]   °F
Weather ElementAverageHighLow
Temperature81.8 °F86 °F (11:54 am)77 °F (4:54 am)
Dewpoint72.2 °F73.9 °F (2:54 am)70 °F (9:54 am)
Humidity73.1 %88 % (4:54 am)61 % (11:54 am)
Barometer29.87 in29.93 in (8:36 am)29.82 in (3:54 am)
Wind Speed12.1 mph19.6 mph (11:54 am)
Wind Gust25.3 mph (11:54 am)
Weather ElementAverage
Visibility10 mi
Wind DirectionE (89.2 °)

Weather ElementTotal
Precipitation---
Cooling Degree Days16.5 (Base 65)
Growing Degree Days31.5 (Base 50)
Averaged from 24 records on March 22, 2014
WEATHER CONDITIONS BREAKOUT
WIND DIRECTION BREAKOUT
WEATHER BY HOUR - MARCH 22, 2014
[ °C ]   °F
Local TimeTemperatureDewpointHumidityBarometerVisibilityWind DirectionWind SpeedGust SpeedPrecipitationEventsConditions
1:54 AM78.1 °F73.0 °F84 %29.84 in10.0 miEast (90°)3.5 mphScattered Clouds
2:54 AM79.0 °F73.9 °F84 %29.83 in10.0 miEast (80°)6.9 mph0.00 inMostly Cloudy
3:54 AM78.1 °F73.0 °F84 %29.82 in10.0 miEast (80°)4.6 mphScattered Clouds
4:54 AM77.0 °F73.0 °F88 %29.83 in10.0 miNorth (360°)3.5 mphPartly Cloudy
5:54 AM79.0 °F73.0 °F82 %29.84 in10.0 miEast (80°)10.4 mphMostly Cloudy
6:54 AM79.0 °F71.1 °F77 %29.86 in10.0 miEast (80°)10.4 mphClear
7:54 AM81.0 °F72.0 °F74 %29.90 in10.0 miEast (80°)9.2 mphClear
8:36 AM82.4 °F71.6 °F70 %29.93 in10.0 miENE (60°)12.7 mphMostly Cloudy
8:54 AM82.9 °F71.1 °F67 %29.92 in10.0 miENE (70°)13.8 mphScattered Clouds
9:54 AM84.0 °F70.0 °F63 %29.92 in10.0 miEast (100°)13.8 mphClear
10:54 AM84.9 °F71.1 °F63 %29.91 in10.0 miEast (90°)16.1 mph24.2 mphClear
11:54 AM86.0 °F71.1 °F61 %29.89 in10.0 miEast (80°)19.6 mph25.3 mphClear
12:54 PM86.0 °F72.0 °F63 %29.86 in10.0 miEast (100°)16.1 mph24.2 mphPartly Cloudy
1:54 PM86.0 °F72.0 °F63 %29.84 in10.0 miEast (80°)18.4 mph24.2 mphPartly Cloudy
2:54 PM84.9 °F72.0 °F65 %29.83 in10.0 miEast (80°)13.8 mph20.7 mphPartly Cloudy
3:54 PM84.0 °F72.0 °F67 %29.83 in10.0 miEast (90°)13.8 mph20.7 mphPartly Cloudy
4:54 PM84.0 °F73.0 °F69 %29.84 in10.0 miENE (70°)17.3 mph20.7 mphPartly Cloudy
5:54 PM82.9 °F72.0 °F69 %29.85 in10.0 miENE (70°)12.7 mphScattered Clouds
6:54 PM81.0 °F72.0 °F74 %29.86 in10.0 miENE (60°)11.5 mphPartly Cloudy
7:54 PM81.0 °F72.0 °F74 %29.87 in10.0 miENE (70°)9.2 mphPartly Cloudy
8:54 PM81.0 °F73.0 °F77 %29.88 in10.0 miENE (70°)13.8 mphPartly Cloudy
9:54 PM80.1 °F73.0 °F79 %29.90 in10.0 miENE (70°)16.1 mphPartly Cloudy
10:54 PM80.1 °F73.0 °F79 %29.90 in10.0 miENE (60°)13.8 mph19.6 mphPartly Cloudy
11:54 PM80.1 °F73.0 °F79 %29.90 in10.0 miENE (70°)9.2 mphPartly Cloudy
Hourly data recorded from PGUM, located miles away from Asatdas, Guam







STORIES FROM OUR PARTNERS